Starlink 31089

operational
NORAD ID: 58610 Int'l Des: 2023-200 Owner: SPXS Country: US Constellation: starlink
LEOCIRCULAR

Starlink 31089について

説明を読み込み中...

リアルタイム位置

3D地球を読み込み中...

次回通過

高度履歴

Altitude vs Time

uPlot chart will show altitude changes over time

軌道要素

1 58610U 23200X 25340.91754498 .00006339 00000-0 48395-3 0 9991
2 58610 43.0041 314.7478 0001205 274.9256 85.1448 15.02532568109637
Epoch: Dec 6, 2025 • Age: 20 hours

現在のステータス

高度 562.3 km
速度 7.59 km/s
衛星直下点 39.86°N, 85.78°E
打ち上げ日 Dec 19, 2023
運用期間 1.9 years
タイプ internet

技術仕様

分類 Payload
質量 730.00 kg
乾燥質量 700.00 kg
総質量 730.00 kg
長さ 0.30 m
直径 4.10 m
スパン 29.00 m
形状 Box + pan
製造者 SPXS
バスタイプ Starlink V2M
フェーズステータス In Orbit
所有者/国 SPXS/US

大規模コンステレーション

Loading constellations...